Year,Month,Day,Hour,Minute,Value (Times are PST for temperature in C)
2008,08,28,00,00,15.00
2008,08,28,00,01,15.00
2008,08,28,00,02,15.00
2008,08,28,00,03,15.00
2008,08,28,00,04,15.00
2008,08,28,00,05,15.00
2008,08,28,00,06,15.00
2008,08,28,00,07,15.00
2008,08,28,00,08,14.90
2008,08,28,00,09,14.90
2008,08,28,00,10,14.90
2008,08,28,00,11,14.90
2008,08,28,00,12,14.90
2008,08,28,00,13,14.90
2008,08,28,00,14,14.90
2008,08,28,00,15,14.90
2008,08,28,00,16,14.90
2008,08,28,00,17,14.90
2008,08,28,00,18,14.90
2008,08,28,00,19,14.90
2008,08,28,00,20,14.90
2008,08,28,00,21,14.90
2008,08,28,00,22,14.90
2008,08,28,00,23,14.90
2008,08,28,00,24,14.90
2008,08,28,00,25,14.90
2008,08,28,00,26,14.90
2008,08,28,00,27,14.90
2008,08,28,00,28,14.90
2008,08,28,00,29,14.90
2008,08,28,00,30,14.90
2008,08,28,00,31,14.90
2008,08,28,00,32,14.90
2008,08,28,00,33,14.90
2008,08,28,00,34,14.90
2008,08,28,00,35,14.90
2008,08,28,00,36,14.80
2008,08,28,00,37,14.80
2008,08,28,00,38,14.80
2008,08,28,00,39,14.80
2008,08,28,00,40,14.80
2008,08,28,00,41,14.80
2008,08,28,00,42,14.80
2008,08,28,00,43,14.80
2008,08,28,00,44,14.80
2008,08,28,00,45,14.80
2008,08,28,00,46,14.80
2008,08,28,00,47,14.80
2008,08,28,00,48,14.80
2008,08,28,00,49,14.80
2008,08,28,00,50,14.80
2008,08,28,00,51,14.80
2008,08,28,00,52,14.80
2008,08,28,00,53,14.80
2008,08,28,00,54,14.80
2008,08,28,00,55,14.80
2008,08,28,00,56,14.80
2008,08,28,00,57,14.80
2008,08,28,00,58,14.80
2008,08,28,00,59,14.80
2008,08,28,01,00,14.80
2008,08,28,01,01,14.80
2008,08,28,01,02,14.80
2008,08,28,01,03,14.80
2008,08,28,01,04,14.80
2008,08,28,01,05,14.80
2008,08,28,01,06,14.80
2008,08,28,01,07,14.80
2008,08,28,01,08,14.80
2008,08,28,01,09,14.80
2008,08,28,01,10,14.80
2008,08,28,01,11,14.80
2008,08,28,01,12,14.80
2008,08,28,01,13,14.80
2008,08,28,01,14,14.80
2008,08,28,01,15,14.80
2008,08,28,01,16,14.70
2008,08,28,01,17,14.70
2008,08,28,01,18,14.70
2008,08,28,01,19,14.60
2008,08,28,01,20,14.60
2008,08,28,01,21,14.50
2008,08,28,01,22,14.50
2008,08,28,01,23,14.50
2008,08,28,01,24,14.40
2008,08,28,01,25,14.40
2008,08,28,01,26,14.40
2008,08,28,01,27,14.30
2008,08,28,01,28,14.30
2008,08,28,01,29,14.30
2008,08,28,01,30,14.20
2008,08,28,01,31,14.20
2008,08,28,01,32,14.20
2008,08,28,01,33,14.20
2008,08,28,01,34,14.20
2008,08,28,01,35,14.20
2008,08,28,01,36,14.20
2008,08,28,01,37,14.10
2008,08,28,01,38,14.10
2008,08,28,01,39,14.10
2008,08,28,01,40,14.10
2008,08,28,01,41,14.10
2008,08,28,01,42,14.10
2008,08,28,01,43,14.10
2008,08,28,01,44,14.10
2008,08,28,01,45,14.10
2008,08,28,01,46,14.10
2008,08,28,01,47,14.10
2008,08,28,01,48,14.10
2008,08,28,01,49,14.10
2008,08,28,01,50,14.10
2008,08,28,01,51,14.10
2008,08,28,01,52,14.10
2008,08,28,01,53,14.10
2008,08,28,01,54,14.10
2008,08,28,01,55,14.10
2008,08,28,01,56,14.10
2008,08,28,01,57,14.10
2008,08,28,01,58,14.10
2008,08,28,01,59,14.10
2008,08,28,02,00,14.10
2008,08,28,02,01,14.10
2008,08,28,02,02,14.00
2008,08,28,02,03,14.00
2008,08,28,02,04,14.00
2008,08,28,02,05,14.00
2008,08,28,02,06,14.00
2008,08,28,02,07,14.00
2008,08,28,02,08,14.00
2008,08,28,02,09,14.00
2008,08,28,02,10,14.00
2008,08,28,02,11,14.00
2008,08,28,02,12,14.00
2008,08,28,02,13,14.00
2008,08,28,02,14,14.00
2008,08,28,02,15,14.00
2008,08,28,02,16,14.00
2008,08,28,02,17,14.00
2008,08,28,02,18,14.00
2008,08,28,02,19,14.00
2008,08,28,02,20,14.00
2008,08,28,02,21,14.00
2008,08,28,02,22,14.00
2008,08,28,02,23,14.00
2008,08,28,02,24,14.00
2008,08,28,02,25,14.00
2008,08,28,02,26,14.00
2008,08,28,02,27,14.00
2008,08,28,02,28,14.00
2008,08,28,02,29,13.90
2008,08,28,02,30,13.90
2008,08,28,02,31,13.90
2008,08,28,02,32,13.80
2008,08,28,02,33,13.70
2008,08,28,02,34,13.70
2008,08,28,02,35,13.70
2008,08,28,02,36,13.60
2008,08,28,02,37,13.50
2008,08,28,02,38,13.50
2008,08,28,02,39,13.50
2008,08,28,02,40,13.40
2008,08,28,02,41,13.40
2008,08,28,02,42,13.40
2008,08,28,02,43,13.30
2008,08,28,02,44,13.30
2008,08,28,02,45,13.20
2008,08,28,02,46,13.10
2008,08,28,02,47,13.10
2008,08,28,02,48,13.00
2008,08,28,02,49,13.00
2008,08,28,02,50,12.90
2008,08,28,02,51,12.90
2008,08,28,02,52,12.80
2008,08,28,02,53,12.80
2008,08,28,02,54,12.70
2008,08,28,02,55,12.60
2008,08,28,02,56,12.60
2008,08,28,02,57,12.50
2008,08,28,02,58,12.50
2008,08,28,02,59,12.50
2008,08,28,03,00,12.50
2008,08,28,03,01,12.50
2008,08,28,03,02,12.50
2008,08,28,03,03,12.50
2008,08,28,03,04,12.50
2008,08,28,03,05,12.40
2008,08,28,03,06,12.40
2008,08,28,03,07,12.30
2008,08,28,03,08,12.30
2008,08,28,03,09,12.20
2008,08,28,03,10,12.20
2008,08,28,03,11,12.10
2008,08,28,03,12,12.10
2008,08,28,03,13,12.10
2008,08,28,03,14,12.00
2008,08,28,03,15,12.00
2008,08,28,03,16,12.00
2008,08,28,03,17,11.90
2008,08,28,03,18,11.90
2008,08,28,03,19,11.90
2008,08,28,03,20,11.90
2008,08,28,03,21,11.90
2008,08,28,03,22,11.90
2008,08,28,03,23,11.90
2008,08,28,03,24,11.90
2008,08,28,03,25,11.90
2008,08,28,03,26,11.90
2008,08,28,03,27,11.80
2008,08,28,03,28,11.80
2008,08,28,03,29,11.80
2008,08,28,03,30,11.80
2008,08,28,03,31,11.80
2008,08,28,03,32,11.80
2008,08,28,03,33,11.80
2008,08,28,03,34,11.80
2008,08,28,03,35,11.80
2008,08,28,03,36,11.80
2008,08,28,03,37,11.80
2008,08,28,03,38,11.80
2008,08,28,03,39,11.70
2008,08,28,03,40,11.70
2008,08,28,03,41,11.70
2008,08,28,03,42,11.70
2008,08,28,03,43,11.70
2008,08,28,03,44,11.70
2008,08,28,03,45,11.70
2008,08,28,03,46,11.70
2008,08,28,03,47,11.70
2008,08,28,03,48,11.70
2008,08,28,03,49,11.70
2008,08,28,03,50,11.70
2008,08,28,03,51,11.60
2008,08,28,03,52,11.60
2008,08,28,03,53,11.60
2008,08,28,03,54,11.60
2008,08,28,03,55,11.60
2008,08,28,03,56,11.60
2008,08,28,03,57,11.60
2008,08,28,03,58,11.60
2008,08,28,03,59,11.50
2008,08,28,04,00,11.40
2008,08,28,04,01,11.40
2008,08,28,04,02,11.40
2008,08,28,04,03,11.40
2008,08,28,04,04,11.40
2008,08,28,04,18,11.40
2008,08,28,04,36,11.20
2008,08,28,04,58,11.10
2008,08,28,05,23,11.30
2008,08,28,05,44,11.20
2008,08,28,06,07,11.10
2008,08,28,06,30,11.30
2008,08,28,06,50,11.60
2008,08,28,07,17,11.40
2008,08,28,07,41,11.20
2008,08,28,07,58,11.40
2008,08,28,08,21,11.60
2008,08,28,08,38,11.80
2008,08,28,08,56,11.90
2008,08,28,09,20,12.10
2008,08,28,09,44,12.30
2008,08,28,10,07,12.40
2008,08,28,10,31,12.50
2008,08,28,10,54,13.00
2008,08,28,11,13,12.60
2008,08,28,11,30,12.40
2008,08,28,11,46,12.70
2008,08,28,11,47,12.80
2008,08,28,11,48,12.80
2008,08,28,11,49,12.80
2008,08,28,11,50,12.90
2008,08,28,11,51,13.00
2008,08,28,11,52,13.00
2008,08,28,11,53,13.00
2008,08,28,11,54,13.10
2008,08,28,11,55,13.10
2008,08,28,11,56,13.20
2008,08,28,11,57,13.20
2008,08,28,11,58,13.20
2008,08,28,11,59,13.20
2008,08,28,12,00,13.30
2008,08,28,12,01,13.30
2008,08,28,12,02,13.30
2008,08,28,12,03,13.20
2008,08,28,12,04,13.20
2008,08,28,12,05,13.20
2008,08,28,12,06,13.30
2008,08,28,12,07,13.30
2008,08,28,12,08,13.40
2008,08,28,12,09,13.40
2008,08,28,12,10,13.30
2008,08,28,12,11,13.40
2008,08,28,12,12,13.40
2008,08,28,12,13,13.50
2008,08,28,12,14,13.50
2008,08,28,12,15,13.50
2008,08,28,12,16,13.50
2008,08,28,12,17,13.50
2008,08,28,12,18,13.50
2008,08,28,12,19,13.50
2008,08,28,12,20,13.50
2008,08,28,12,21,13.50
2008,08,28,12,22,13.50
2008,08,28,12,23,13.50
2008,08,28,12,24,13.60
2008,08,28,12,25,13.70
2008,08,28,12,26,13.70
2008,08,28,12,27,13.70
2008,08,28,12,28,13.70
2008,08,28,12,29,13.70
2008,08,28,12,30,13.70
2008,08,28,12,31,13.70
2008,08,28,12,32,13.70
2008,08,28,12,33,13.80
2008,08,28,12,34,13.80
2008,08,28,12,35,13.80
2008,08,28,12,36,13.80
2008,08,28,12,37,13.80
2008,08,28,12,38,13.80
2008,08,28,12,39,13.80
2008,08,28,12,40,13.90
2008,08,28,12,41,13.90
2008,08,28,12,42,13.90
2008,08,28,12,43,13.90
2008,08,28,12,44,13.90
2008,08,28,12,45,13.90
2008,08,28,12,46,13.90
2008,08,28,12,47,13.90
2008,08,28,12,48,13.90
2008,08,28,12,49,14.00
2008,08,28,12,50,14.00
2008,08,28,12,51,13.90
2008,08,28,12,52,14.00
2008,08,28,12,53,13.90
2008,08,28,12,54,13.90
2008,08,28,12,55,14.00
2008,08,28,12,56,14.00
2008,08,28,12,57,14.00
2008,08,28,12,58,14.00
2008,08,28,12,59,14.00
2008,08,28,13,00,14.00
2008,08,28,13,01,14.00
2008,08,28,13,02,14.00
2008,08,28,13,03,14.00
2008,08,28,13,04,14.00
2008,08,28,13,05,14.00
2008,08,28,13,06,14.00
2008,08,28,13,07,14.00
2008,08,28,13,08,14.00
2008,08,28,13,09,14.00
2008,08,28,13,10,14.00
2008,08,28,13,11,14.00
2008,08,28,13,12,14.00
2008,08,28,13,13,14.00
2008,08,28,13,14,14.00
2008,08,28,13,15,14.00
2008,08,28,13,16,14.00
2008,08,28,13,17,14.10
2008,08,28,13,18,14.10
2008,08,28,13,19,14.10
2008,08,28,13,20,14.20
2008,08,28,13,21,14.20
2008,08,28,13,22,14.20
2008,08,28,13,23,14.30
2008,08,28,13,24,14.30
2008,08,28,13,25,14.30
2008,08,28,13,26,14.40
2008,08,28,13,27,14.40
2008,08,28,13,28,14.40
2008,08,28,13,29,14.50
2008,08,28,13,30,14.50
2008,08,28,13,31,14.60
2008,08,28,13,32,14.60
2008,08,28,13,33,14.70
2008,08,28,13,34,14.80
2008,08,28,13,35,14.80
2008,08,28,13,36,14.90
2008,08,28,13,37,15.00
2008,08,28,13,38,15.10
2008,08,28,13,39,15.20
2008,08,28,13,40,15.30
2008,08,28,13,41,15.30
2008,08,28,13,42,15.40
2008,08,28,13,43,15.40
2008,08,28,13,44,15.50
2008,08,28,13,45,15.50
2008,08,28,13,46,15.60
2008,08,28,13,47,15.60
2008,08,28,13,48,15.60
2008,08,28,13,49,15.60
2008,08,28,13,50,15.60
2008,08,28,13,51,15.70
2008,08,28,13,52,15.70
2008,08,28,13,53,15.70
2008,08,28,13,54,15.70
2008,08,28,13,55,15.70
2008,08,28,13,56,15.70
2008,08,28,13,57,15.70
2008,08,28,13,58,15.70
2008,08,28,13,59,15.80
2008,08,28,14,00,15.80
2008,08,28,14,01,15.80
2008,08,28,14,02,15.80
2008,08,28,14,03,15.80
2008,08,28,14,04,15.80
2008,08,28,14,05,15.70
2008,08,28,14,06,15.70
2008,08,28,14,07,15.70
2008,08,28,14,08,15.70
2008,08,28,14,09,15.80
2008,08,28,14,10,15.80
2008,08,28,14,11,15.80
2008,08,28,14,12,15.80
2008,08,28,14,13,15.70
2008,08,28,14,14,15.70
2008,08,28,14,15,15.70
2008,08,28,14,16,15.70
2008,08,28,14,17,15.70
2008,08,28,14,18,15.60
2008,08,28,14,19,15.60
2008,08,28,14,20,15.60
2008,08,28,14,21,15.60
2008,08,28,14,22,15.50
2008,08,28,14,23,15.50
2008,08,28,14,24,15.50
2008,08,28,14,25,15.50
2008,08,28,14,26,15.50
2008,08,28,14,27,15.50
2008,08,28,14,28,15.50
2008,08,28,14,29,15.50
2008,08,28,14,30,15.40
2008,08,28,14,31,15.50
2008,08,28,14,32,15.50
2008,08,28,14,33,15.50
2008,08,28,14,34,15.50
2008,08,28,14,35,15.50
2008,08,28,14,36,15.50
2008,08,28,14,37,15.50
2008,08,28,14,38,15.60
2008,08,28,14,39,15.60
2008,08,28,14,40,15.60
2008,08,28,14,41,15.70
2008,08,28,14,42,15.70
2008,08,28,14,43,15.70
2008,08,28,14,44,15.70
2008,08,28,14,45,15.70
2008,08,28,14,46,15.70
2008,08,28,14,47,15.80
2008,08,28,14,48,15.80
2008,08,28,14,49,15.80
2008,08,28,14,50,15.80
2008,08,28,14,51,15.80
2008,08,28,14,52,15.90
2008,08,28,14,53,15.90
2008,08,28,14,54,15.90
2008,08,28,14,55,16.00
2008,08,28,14,56,16.10
2008,08,28,14,57,16.10
2008,08,28,14,58,16.20
2008,08,28,14,59,16.30
2008,08,28,15,00,16.30
2008,08,28,15,01,16.30
2008,08,28,15,02,16.30
2008,08,28,15,03,16.30
2008,08,28,15,04,16.30
2008,08,28,15,05,16.20
2008,08,28,15,06,16.20
2008,08,28,15,07,16.20
2008,08,28,15,08,16.20
2008,08,28,15,09,16.20
2008,08,28,15,10,16.20
2008,08,28,15,11,16.20
2008,08,28,15,12,16.20
2008,08,28,15,13,16.20
2008,08,28,15,14,16.20
2008,08,28,15,15,16.20
2008,08,28,15,16,16.30
2008,08,28,15,17,16.30
2008,08,28,15,18,16.30
2008,08,28,15,19,16.30
2008,08,28,15,20,16.30
2008,08,28,15,21,16.30
2008,08,28,15,22,16.40
2008,08,28,15,23,16.40
2008,08,28,15,24,16.40
2008,08,28,15,25,16.40
2008,08,28,15,26,16.30
2008,08,28,15,27,16.30
2008,08,28,15,28,16.30
2008,08,28,15,29,16.40
2008,08,28,15,30,16.40
2008,08,28,15,31,16.40
2008,08,28,15,32,16.40
2008,08,28,15,33,16.40
2008,08,28,15,34,16.40
2008,08,28,15,35,16.40
2008,08,28,15,36,16.50
2008,08,28,15,37,16.40
2008,08,28,15,38,16.40
2008,08,28,15,39,16.40
2008,08,28,15,40,16.30
2008,08,28,15,41,16.30
2008,08,28,15,42,16.30
2008,08,28,15,43,16.30
2008,08,28,15,44,16.40
2008,08,28,15,45,16.40
2008,08,28,15,46,16.40
2008,08,28,15,47,16.40
2008,08,28,15,48,16.40
2008,08,28,15,49,16.40
2008,08,28,15,50,16.40
2008,08,28,15,51,16.50
2008,08,28,15,52,16.60
2008,08,28,15,53,16.70
2008,08,28,15,54,16.70
2008,08,28,15,55,16.80
2008,08,28,15,56,16.80
2008,08,28,15,57,16.90
2008,08,28,15,58,16.90
2008,08,28,15,59,16.90
2008,08,28,16,00,17.00
2008,08,28,16,01,17.00
2008,08,28,16,02,17.00
2008,08,28,16,03,17.00
2008,08,28,16,04,17.10
2008,08,28,16,05,17.10
2008,08,28,16,06,17.10
2008,08,28,16,07,17.10
2008,08,28,16,08,17.10
2008,08,28,16,09,17.10
2008,08,28,16,10,17.10
2008,08,28,16,11,17.10
2008,08,28,16,12,17.20
2008,08,28,16,13,17.20
2008,08,28,16,14,17.20
2008,08,28,16,15,17.10
2008,08,28,16,16,17.00
2008,08,28,16,17,17.00
2008,08,28,16,18,16.90
2008,08,28,16,19,16.90
2008,08,28,16,20,16.80
2008,08,28,16,21,16.80
2008,08,28,16,22,16.80
2008,08,28,16,23,16.80
2008,08,28,16,24,16.80
2008,08,28,16,25,16.80
2008,08,28,16,26,16.80
2008,08,28,16,27,16.80
2008,08,28,16,28,16.90
2008,08,28,16,29,16.90
2008,08,28,16,30,16.90
2008,08,28,16,31,16.90
2008,08,28,16,32,16.90
2008,08,28,16,33,16.90
2008,08,28,16,34,16.80
2008,08,28,16,35,16.80
2008,08,28,16,36,16.80
2008,08,28,16,37,16.80
2008,08,28,16,38,16.80
2008,08,28,16,39,16.80
2008,08,28,16,40,16.80
2008,08,28,16,41,16.80
2008,08,28,16,42,16.80
2008,08,28,16,43,16.70
2008,08,28,16,44,16.70
2008,08,28,16,45,16.70
2008,08,28,16,46,16.70
2008,08,28,16,47,16.70
2008,08,28,16,48,16.70
2008,08,28,16,49,16.70
2008,08,28,16,50,16.70
2008,08,28,16,51,16.70
2008,08,28,16,52,16.70
2008,08,28,16,53,16.60
2008,08,28,16,54,16.60
2008,08,28,16,55,16.60
2008,08,28,16,56,16.60
2008,08,28,16,57,16.60
2008,08,28,16,58,16.60
2008,08,28,16,59,16.60
2008,08,28,17,00,16.60
2008,08,28,17,01,16.70
2008,08,28,17,02,16.60
2008,08,28,17,03,16.60
2008,08,28,17,04,16.60
2008,08,28,17,05,16.60
2008,08,28,17,06,16.60
2008,08,28,17,07,16.60
2008,08,28,17,08,16.60
2008,08,28,17,09,16.60
2008,08,28,17,10,16.60
2008,08,28,17,11,16.60
2008,08,28,17,12,16.60
2008,08,28,17,13,16.60
2008,08,28,17,14,16.60
2008,08,28,17,15,16.60
2008,08,28,17,16,16.60
2008,08,28,17,17,16.60
2008,08,28,17,18,16.70
2008,08,28,17,19,16.70
2008,08,28,17,20,16.70
2008,08,28,17,21,16.70
2008,08,28,17,22,16.70
2008,08,28,17,23,16.70
2008,08,28,17,24,16.70
2008,08,28,17,25,16.70
2008,08,28,17,26,16.70
2008,08,28,17,27,16.70
2008,08,28,17,28,16.70
2008,08,28,17,29,16.70
2008,08,28,17,30,16.70
2008,08,28,17,31,16.70
2008,08,28,17,32,16.70
2008,08,28,17,33,16.70
2008,08,28,17,34,16.70
2008,08,28,17,35,16.80
2008,08,28,17,36,16.80
2008,08,28,17,37,16.80
2008,08,28,17,38,16.80
2008,08,28,17,39,16.90
2008,08,28,17,40,16.90
2008,08,28,17,41,16.90
2008,08,28,17,42,17.00
2008,08,28,17,43,17.00
2008,08,28,17,44,17.00
2008,08,28,17,45,17.00
2008,08,28,17,46,17.10
2008,08,28,17,47,17.10
2008,08,28,17,48,17.10
2008,08,28,17,49,17.10
2008,08,28,17,50,17.00
2008,08,28,17,51,17.00
2008,08,28,17,52,17.00
2008,08,28,17,53,17.00
2008,08,28,17,54,17.00
2008,08,28,17,55,17.00
2008,08,28,17,56,17.00
2008,08,28,17,57,17.00
2008,08,28,17,58,17.10
2008,08,28,17,59,17.10
2008,08,28,18,00,17.10
2008,08,28,18,01,17.10
2008,08,28,18,02,17.10
2008,08,28,18,03,17.10
2008,08,28,18,04,17.10
2008,08,28,18,05,17.10
2008,08,28,18,06,17.10
2008,08,28,18,07,17.10
2008,08,28,18,08,17.20
2008,08,28,18,09,17.20
2008,08,28,18,10,17.20
2008,08,28,18,11,17.20
2008,08,28,18,12,17.20
2008,08,28,18,13,17.20
2008,08,28,18,14,17.20
2008,08,28,18,15,17.30
2008,08,28,18,16,17.20
2008,08,28,18,17,17.20
2008,08,28,18,18,17.20
2008,08,28,18,19,17.20
2008,08,28,18,20,17.20
2008,08,28,18,21,17.10
2008,08,28,18,22,17.10
2008,08,28,18,23,17.10
2008,08,28,18,24,17.10
2008,08,28,18,25,17.10
2008,08,28,18,26,17.10
2008,08,28,18,27,17.10
2008,08,28,18,28,17.10
2008,08,28,18,29,17.10
2008,08,28,18,30,17.00
2008,08,28,18,31,17.00
2008,08,28,18,32,17.00
2008,08,28,18,33,17.00
2008,08,28,18,34,17.00
2008,08,28,18,35,17.00
2008,08,28,18,36,17.00
2008,08,28,18,37,17.00
2008,08,28,18,38,17.00
2008,08,28,18,39,17.00
2008,08,28,18,40,17.10
2008,08,28,18,41,17.10
2008,08,28,18,42,17.10
2008,08,28,18,43,17.10
2008,08,28,18,44,17.10
2008,08,28,18,45,17.10
2008,08,28,18,46,17.10
2008,08,28,18,47,17.10
2008,08,28,18,48,17.10
2008,08,28,18,49,17.10
2008,08,28,18,50,17.10
2008,08,28,18,51,17.10
2008,08,28,18,52,17.10
2008,08,28,18,53,17.10
2008,08,28,18,54,17.10
2008,08,28,18,55,17.10
2008,08,28,18,56,17.10
2008,08,28,18,57,17.10
2008,08,28,18,58,17.00
2008,08,28,18,59,17.00
2008,08,28,19,00,17.00
2008,08,28,19,01,17.00
2008,08,28,19,02,17.00
2008,08,28,19,03,17.00
2008,08,28,19,04,17.00
2008,08,28,19,05,17.00
2008,08,28,19,06,17.00
2008,08,28,19,07,17.00
2008,08,28,19,08,17.00
2008,08,28,19,09,17.00
2008,08,28,19,10,17.00
2008,08,28,19,11,17.10
2008,08,28,19,12,17.10
2008,08,28,19,13,17.10
2008,08,28,19,14,17.10
2008,08,28,19,15,17.20
2008,08,28,19,16,17.20
2008,08,28,19,17,17.30
2008,08,28,19,18,17.30
2008,08,28,19,19,17.30
2008,08,28,19,20,17.30
2008,08,28,19,21,17.40
2008,08,28,19,22,17.40
2008,08,28,19,23,17.50
2008,08,28,19,24,17.50
2008,08,28,19,25,17.60
2008,08,28,19,26,17.60
2008,08,28,19,27,17.60
2008,08,28,19,28,17.70
2008,08,28,19,29,17.70
2008,08,28,19,30,17.70
2008,08,28,19,31,17.70
2008,08,28,19,32,17.70
2008,08,28,19,33,17.70
2008,08,28,19,34,17.70
2008,08,28,19,35,17.80
2008,08,28,19,36,17.80
2008,08,28,19,37,17.80
2008,08,28,19,38,17.80
2008,08,28,19,39,17.80
2008,08,28,19,40,17.80
2008,08,28,19,41,17.80
2008,08,28,19,42,17.80
2008,08,28,19,43,17.70
2008,08,28,19,44,17.70
2008,08,28,19,45,17.70
2008,08,28,19,46,17.70
2008,08,28,19,47,17.70
2008,08,28,19,48,17.70
2008,08,28,19,49,17.70
2008,08,28,19,50,17.80
2008,08,28,19,51,17.80
2008,08,28,19,52,17.80
2008,08,28,19,53,17.80
2008,08,28,19,54,17.80
2008,08,28,19,55,17.80
2008,08,28,19,56,17.80
2008,08,28,19,57,17.80
2008,08,28,19,58,17.80
2008,08,28,19,59,17.80
2008,08,28,20,00,17.80
2008,08,28,20,01,17.80
2008,08,28,20,02,17.80
2008,08,28,20,03,17.70
2008,08,28,20,04,17.70
2008,08,28,20,05,17.70
2008,08,28,20,06,17.70
2008,08,28,20,07,17.70
2008,08,28,20,08,17.70
2008,08,28,20,09,17.70
2008,08,28,20,10,17.70
2008,08,28,20,11,17.70
2008,08,28,20,12,17.70
2008,08,28,20,13,17.70
2008,08,28,20,14,17.60
2008,08,28,20,15,17.60
2008,08,28,20,16,17.60
2008,08,28,20,17,17.60
2008,08,28,20,18,17.60
2008,08,28,20,19,17.50
2008,08,28,20,20,17.50
2008,08,28,20,21,17.50
2008,08,28,20,22,17.50
2008,08,28,20,23,17.50
2008,08,28,20,24,17.50
2008,08,28,20,25,17.50
2008,08,28,20,26,17.50
2008,08,28,20,27,17.50
2008,08,28,20,28,17.50
2008,08,28,20,29,17.50
2008,08,28,20,30,17.50
2008,08,28,20,31,17.50
2008,08,28,20,32,17.50
2008,08,28,20,33,17.40
2008,08,28,20,34,17.40
2008,08,28,20,35,17.40
2008,08,28,20,36,17.40
2008,08,28,20,37,17.30
2008,08,28,20,38,17.00
2008,08,28,20,39,16.70
2008,08,28,20,40,16.50
2008,08,28,20,41,16.30
2008,08,28,20,42,16.20
2008,08,28,20,43,16.00
2008,08,28,20,44,15.80
2008,08,28,20,45,15.70
2008,08,28,20,46,15.60
2008,08,28,20,47,15.50
2008,08,28,20,48,15.40
2008,08,28,20,49,15.30
2008,08,28,20,50,15.30
2008,08,28,20,51,15.30
2008,08,28,20,52,15.30
2008,08,28,20,53,15.30
2008,08,28,20,54,15.30
2008,08,28,20,55,15.30
2008,08,28,20,56,15.20
2008,08,28,20,57,15.10
2008,08,28,20,58,15.10
2008,08,28,20,59,15.00
2008,08,28,21,00,15.00
2008,08,28,21,01,15.00
2008,08,28,21,02,14.90
2008,08,28,21,03,14.80
2008,08,28,21,04,14.80
2008,08,28,21,05,14.70
2008,08,28,21,06,14.60
2008,08,28,21,07,14.60
2008,08,28,21,08,14.50
2008,08,28,21,09,14.50
2008,08,28,21,10,14.50
2008,08,28,21,11,14.40
2008,08,28,21,12,14.40
2008,08,28,21,13,14.40
2008,08,28,21,14,14.40
2008,08,28,21,15,14.30
2008,08,28,21,16,14.30
2008,08,28,21,17,14.30
2008,08,28,21,18,14.30
2008,08,28,21,19,14.30
2008,08,28,21,20,14.30
2008,08,28,21,21,14.30
2008,08,28,21,22,14.30
2008,08,28,21,23,14.40
2008,08,28,21,24,14.40
2008,08,28,21,25,14.40
2008,08,28,21,26,14.40
2008,08,28,21,27,14.40
2008,08,28,21,28,14.40
2008,08,28,21,29,14.40
2008,08,28,21,30,14.40
2008,08,28,21,31,14.30
2008,08,28,21,32,14.30
2008,08,28,21,33,14.20
2008,08,28,21,34,14.20
2008,08,28,21,35,14.20
2008,08,28,21,36,14.20
2008,08,28,21,37,14.20
2008,08,28,21,38,14.20
2008,08,28,21,39,14.20
2008,08,28,21,40,14.20
2008,08,28,21,41,14.20
2008,08,28,21,42,14.20
2008,08,28,21,43,14.20
2008,08,28,21,44,14.20
2008,08,28,21,45,14.10
2008,08,28,21,46,14.10
2008,08,28,21,47,14.10
2008,08,28,21,48,14.10
2008,08,28,21,49,14.10
2008,08,28,21,50,14.10
2008,08,28,21,51,14.10
2008,08,28,21,52,14.20
2008,08,28,21,53,14.20
2008,08,28,21,54,14.20
2008,08,28,21,55,14.20
2008,08,28,21,56,14.20
2008,08,28,21,57,14.20
2008,08,28,21,58,14.30
2008,08,28,21,59,14.30
2008,08,28,22,00,14.30
2008,08,28,22,01,14.30
2008,08,28,22,02,14.30
2008,08,28,22,03,14.30
2008,08,28,22,04,14.40
2008,08,28,22,05,14.40
2008,08,28,22,06,14.40
2008,08,28,22,07,14.40
2008,08,28,22,08,14.40
2008,08,28,22,09,14.40
2008,08,28,22,10,14.40
2008,08,28,22,11,14.40
2008,08,28,22,12,14.50
2008,08,28,22,13,14.50
2008,08,28,22,14,14.50
2008,08,28,22,15,14.50
2008,08,28,22,16,14.50
2008,08,28,22,17,14.50
2008,08,28,22,18,14.50
2008,08,28,22,19,14.50
2008,08,28,22,20,14.40
2008,08,28,22,21,14.40
2008,08,28,22,22,14.40
2008,08,28,22,23,14.30
2008,08,28,22,24,14.30
2008,08,28,22,25,14.30
2008,08,28,22,26,14.20
2008,08,28,22,27,14.20
2008,08,28,22,28,14.20
2008,08,28,22,29,14.20
2008,08,28,22,30,14.20
2008,08,28,22,31,14.20
2008,08,28,22,32,14.20
2008,08,28,22,33,14.20
2008,08,28,22,34,14.20
2008,08,28,22,35,14.20
2008,08,28,22,36,14.20
2008,08,28,22,37,14.20
2008,08,28,22,38,14.20
2008,08,28,22,39,14.20
2008,08,28,22,40,14.20
2008,08,28,22,41,14.20
2008,08,28,22,42,14.20
2008,08,28,22,43,14.20
2008,08,28,22,44,14.20
2008,08,28,22,45,14.20
2008,08,28,22,46,14.20
2008,08,28,22,47,14.20
2008,08,28,22,48,14.20
2008,08,28,22,49,14.20
2008,08,28,22,50,14.20
2008,08,28,22,51,14.20
2008,08,28,22,52,14.30
2008,08,28,22,53,14.30
2008,08,28,22,54,14.20
2008,08,28,22,55,14.20
2008,08,28,22,56,14.20
2008,08,28,22,57,14.20
2008,08,28,22,58,14.20
2008,08,28,22,59,14.20
2008,08,28,23,00,14.20
2008,08,28,23,01,14.20
2008,08,28,23,02,14.20
2008,08,28,23,03,14.20
2008,08,28,23,04,14.20
2008,08,28,23,05,14.30
2008,08,28,23,06,14.30
2008,08,28,23,07,14.40
2008,08,28,23,08,14.40
2008,08,28,23,09,14.50
2008,08,28,23,10,14.50
2008,08,28,23,11,14.60
2008,08,28,23,12,14.60
2008,08,28,23,13,14.70
2008,08,28,23,14,14.80
2008,08,28,23,15,14.90
2008,08,28,23,16,15.00
2008,08,28,23,17,15.10
2008,08,28,23,18,15.10
2008,08,28,23,19,15.20
2008,08,28,23,20,15.30
2008,08,28,23,21,15.30
2008,08,28,23,22,15.30
2008,08,28,23,23,15.30
2008,08,28,23,24,15.30
2008,08,28,23,25,15.40
2008,08,28,23,26,15.40
2008,08,28,23,27,15.50
2008,08,28,23,28,15.50
2008,08,28,23,29,15.60
2008,08,28,23,30,15.60
2008,08,28,23,31,15.60
2008,08,28,23,32,15.70
2008,08,28,23,33,15.70
2008,08,28,23,34,15.70
2008,08,28,23,35,15.70
2008,08,28,23,36,15.70
2008,08,28,23,37,15.70
2008,08,28,23,38,15.70
2008,08,28,23,39,15.70
2008,08,28,23,40,15.70
2008,08,28,23,41,15.80
2008,08,28,23,42,15.80
2008,08,28,23,43,15.80
2008,08,28,23,44,15.80
2008,08,28,23,45,15.80
2008,08,28,23,46,15.80
2008,08,28,23,47,15.80
2008,08,28,23,48,15.80
2008,08,28,23,49,15.90
2008,08,28,23,50,15.90
2008,08,28,23,51,15.90
2008,08,28,23,52,16.00
2008,08,28,23,53,16.10
2008,08,28,23,54,16.10
2008,08,28,23,55,16.10
2008,08,28,23,56,16.10
2008,08,28,23,57,16.10
2008,08,28,23,58,16.10
2008,08,28,23,59,16.10
